STARLINK-5328 (55657 NORAD) Tracking and Keplerian Element Data

This shows tracking and keplerian element data for the satellite.

Feedback or suggestion? Click here.




ElementValue
Catalog55657
NameSTARLINK-5328
Epoch Orbit130
Epoch Day62.91667824
Epoch Year2023
RAAN110.1888
Inclination69.9998
Eccentricity0.0003574
Argument of Perigee281.428
Mean Anonmoly323.022
Mean Motion15.75170293
Decay Rate-0.01027437
L11 55657U 23021AF 23062.91667824 -.01027437 00000+0 -75691-2 0 9997
L22 55657 69.9998 110.1888 0003574 281.4280 323.0220 15.75170293 1307



Live tracking and technical data element details for STARLINK-5328 (NORAD 55657). STARLINK-5328 can be tracked NOW for your location showing map with azimuth and elevation plus other details from your city location.







IsCatalogInMostPopularTable: catalog: 55657, numindb: 1
Update: records affected: 1



GetName: 55657 STARLINK-5328

Hit Count: updated at: Wed, 22 Mar 2023 16:23:25 GMT